Regional Weather Roundup
Issued by NWS

Home | Current Version | Previous Version | Text Only | Print | Product List | Glossary On
Versions: 1 2 3 4 5 6 7 8 9 10 11 12 13 14 15 16 17 18 19 20 21 22 23 24 25 26 27 28 29 30 31 32 33 34 35 36 37 38 39 40 41 42 43 44 45 46 47 48 49 50
000
ASUS45 KBOU 110507
RWRCO

WEATHER ROUNDUP FOR COLORADO
NATIONAL WEATHER SERVICE DENVER/BOULDER CO
1000 PM MST SAT DEC 10 2016

NOTE: "FAIR" INDICATES FEW OR NO CLOUDS BELOW 12000 FEET WITH NO
SIGNIFICANT WEATHER AND/OR OBSTRUCTIONS TO VISIBILITY.

COZ001>005-013-030-031-110600-
...NORTHWEST COLORADO...

CITY           SKY/WX    TMP DP  RH WIND       PRES   REMARKS
CRAIG          LGT SNOW  34  31  88 VRB3      29.85R FOG
HAYDEN         CLOUDY    34  28  80 NW8       29.83S WCI  27
MEEKER         CLOUDY    41  27  57 SW9       29.84R
MOUNT WERNER   NOT AVBL
STEAMBOAT SPGS CLOUDY    32  32  99 CALM      29.83R
WALDEN           N/A     32  30  93 SW13G20   29.81R WCI  22
$$

COZ006>008-011-110600-
...WEST CENTRAL VALLEYS...

CITY           SKY/WX    TMP DP  RH WIND       PRES   REMARKS
GRAND JUNCTION MOCLDY    30  25  81 CALM      29.91R
MONTROSE       FAIR      34  27  75 SE3       29.92F
EAGLE          CLOUDY    33  32  96 E6        29.86F WCI  28
RIFLE          CLOUDY    31  26  82 CALM      29.89F
DELTA          MOCLDY    36  27  69 N5        29.92F
NUCLA          FAIR      45  28  53 S8        29.98F
$$

COZ017>023-064>068-110600-
...SOUTHWEST COLORADO...

CITY           SKY/WX    TMP DP  RH WIND       PRES   REMARKS
DURANGO        FAIR      27  21  78 NE3       30.04S
CORTEZ         FAIR      28  25  88 NE5       30.03S WCI  23
PAGOSA SPRINGS FAIR      29  22  75 CALM      30.07S
TELLURIDE      CLOUDY    37  24  58 CALM      30.05S
WOLF CREEK PAS MOCLDY    21  21 100 S24G33    30.13F WCI   4
$$

COZ009-010-012-014-032>034-037-058>063-110600-
...CENTRAL COLORADO...

CITY           SKY/WX    TMP DP  RH WIND       PRES   REMARKS
ASPEN          CLOUDY    33  31  92 N5        29.84F WCI  29
BUENA VISTA    FAIR      37  25  62 S9        29.87S
COPPER MTN     NOT AVBL
BERTHOUD PASS  LGT SNOW  21  10  63 W18       29.88F WCI   6
COTTONWOOD PAS MOCLDY    36  27  69 W14G28    29.91S
GUNNISON       FAIR      27  23  85 SE3       29.96F
KREMMLING      CLOUDY    41  32  70 SW17      29.80F
LEADVILLE      CLOUDY    29  24  82 SE8       29.89F WCI  21
MONARCH PASS   CLOUDY    23  21  93 W29       30.10S WCI   6
SALIDA         FAIR      42  24  47 S5        29.96F
SUNLIGHT       CLOUDY    27  23  86 SW29G44   29.93R WCI  11
WILKERSON PASS MOCLDY    27  21  80 SW17G26   29.94S WCI  14
$$

COZ069>075-110600-
...SAN LUIS VALLEY/SANGRE DE CRISTO MOUNTAINS...

CITY           SKY/WX    TMP DP  RH WIND       PRES   REMARKS
ALAMOSA        FAIR      37  20  50 S8        29.96F
LA VETA PASS   FAIR      32  19  59 NE29G51   29.92F WCI  18
SAGUACHE       FAIR      27  18  69 SE3       29.97S
$$

COZ035-036-038>040-110600-
...NORTHERN COLORADO FRONT RANGE...

CITY           SKY/WX    TMP DP  RH WIND       PRES   REMARKS
DENVER INTL AP MOCLDY    38  26  62 S10       29.68F
DMNS CITY PARK   N/A     47  27  46 E13       29.66F
AURORA         MOCLDY    43  29  56 S7        29.69F
FRONT RANGE AP NOT AVBL
ERIE MUNI ARPT FAIR      48  27  44 N8        29.66F
BOULDER MUN AP FAIR      54  28  37 W12G20    29.64F
CENTENNIAL     MOCLDY    46  27  47 S10       29.69F
BROOMFIELD     MOCLDY    46  28  49 CALM      29.68F
FORT COLLINS   FAIR      32  27  80 CALM      29.69S
LONGMONT       NOT AVBL
$$

COZ041-046-047-076>085-087-088-110600-
...PIKES PEAK/PALMER DIVIDE AND SOUTHERN FOOTHILLS...

CITY           SKY/WX    TMP DP  RH WIND       PRES   REMARKS
COLO. SPRINGS  MOCLDY    43  24  47 E7        29.72F
A. F. ACADEMY  FAIR      50  23  34 VRB7G21   29.71F
SCHRIEVER AFB  NOT AVBL
ELLICOTT       FAIR     N/A N/A N/A E10       29.70F
FALCON         FAIR      44  22  41 W8        29.75F
FORT CARSON    FAIR      50  22  33 NE7       29.68F
LIMON          FAIR      26  20  77 CALM      29.72S
MONUMENT HILL  FAIR      43  25  49 SW9G17    29.75F
TRINIDAD       FAIR      44  12  27 S7        29.75F
$$

COZ042>045-048>051-090-091-110600-
...NORTHEAST COLORADO...

CITY           SKY/WX    TMP DP  RH WIND       PRES   REMARKS
GREELEY ARPT   FAIR      21  18  88 N5        29.70F WCI  15
AKRON          FAIR      35  25  66 SW7       29.69F WCI  29
BURLINGTON     FAIR      27  18  69 W9        29.69F WCI  18
WRAY           FAIR      30  28  93 W7        29.68F WCI  23
STERLING       FAIR      28  25  86 S9        29.67S WCI  20
HOLYOKE        FAIR      32  28  86 W5        29.67F WCI  27
FORT MORGAN    FAIR      31  24  73 CALM      29.70S
$$

COZ086-089-092>099-110600-
...SOUTHEAST COLORADO...

CITY           SKY/WX    TMP DP  RH WIND       PRES   REMARKS
PUEBLO         FAIR      52  22  30 NW12      29.68F
LA JUNTA       FAIR      38  21  50 NE8       29.69F
LAMAR          FAIR      25  19  78 SW8       29.67S WCI  16
SPRINGFIELD      N/A     50  14  23 W14       29.69F
$$



USA.gov is the U.S. government's official web portal to all federal, state and local government web resources and services.